User: anonymous   Login
Location: Unspecified
(0.0000°N, 0.0000°E)
Time: 22:30:39
(UTC+01:00)
Language:

ATLAS 2AS CENTAUR R/B - Orbit

View from above orbital plane
View from above orbital plane
View from above satellite
View from above satellite

Ground track
Ground track

The orbit data is extracted from the following two-line orbital elements,

1 28096U 03054B   14329.86089913 0.00000140  00000-0  20965-3 0    03
2 28096  63.6690 259.2686 0255000 292.8159  67.1841 13.40761013    06
Epoch (UTC): 25 November 2014 20:39:41
Eccentricity: 0.0255000
inclination: 63.6690°
perigee height: 915 km
apogee height: 1297 km
right ascension of ascending node: 259.2686°
argument of perigee: 292.8159°
revolutions per day: 13.40761013
mean anomaly at epoch: 67.1841°
orbit number at epoch: 0

The dashed part of the orbit path shows where the satellite is in the earth's shadow,  

DLR